metlocid,date_time,avg_icesurfchange_cm,stddev_icesurfchange_cm,min_icesurfchange_cm,max_icesurfchange_cm,n_icesurfchange_cm,n_comments
HODM,1/1/04,82.48879778,0.72344589,81.2,84.1,1464,0
HODM,2/1/04,84.53347705,0.826188315,81,86.1,2784,0
HODM,3/1/04,85.316801,0.598575195,79.9,86.4,2976,0
HODM,4/1/04,84.91694468,1.120780452,82.7,86.5,2880,0
HODM,5/1/04,84.83629009,1.483316669,82.6,86.6,2976,0
HODM,6/1/04,86.70444452,0.518213947,85.7,87.7,2880,0
HODM,7/1/04,87.44448957,0.244048121,86.8,88.9,2976,0
HODM,8/1/04,87.32473114,0.282140492,86.7,88.2,2976,0
HODM,9/1/04,87.12777733,0.173893174,86,88,2880,0
HODM,10/1/04,87.62096778,0.34239514,86.7,88.9,2976,0
HODM,11/1/04,89.1800001,0.76568646,88,90.9,2880,0
HODM,12/1/04,91.67298401,2.551099762,82.1,97,2976,0
HODM,1/1/05,89.38924728,1.071867335,85.6,91.8,2976,0
HODM,2/1/05,89.9295082,3.04889605,76.6,93,2684,4
HODM,3/1/05,93.2108872,1.148638866,91.8,95.6,2976,0
HODM,4/1/05,95.90319446,0.596041685,93.8,97.1,2880,0
HODM,5/1/05,96.64260752,0.45046289,95.1,97.7,2976,0
HODM,6/1/05,96.99083331,1.587769996,88.6,98.7,2880,0
HODM,7/1/05,97.68266119,0.25464125,97,98.8,2976,0
HODM,8/1/05,98.05228478,0.328451695,97.3,99.9,2976,0
HODM,9/1/05,98.30875001,0.250528819,97.7,99.5,2880,0
HODM,10/1/05,99.38763438,0.460480156,97.2,100.7,2976,0
HODM,11/1/05,100.8145833,0.527397348,99.4,102.1,2880,0
HODM,12/1/05,102.6599462,1.106853622,98.4,106.1,2976,0
HODM,1/1/06,89.76471367,11.93980557,74.1,109.1,2953,23
HODM,2/1/06,84.33407735,3.548196304,69.7,91.6,2688,0
HODM,3/1/06,87.46933513,4.129897554,72.1,94.8,2948,28
HODM,4/1/06,87.34041647,0.878419196,85.6,90.9,2880,0
HODM,5/1/06,87.97217751,0.454052378,86.4,89.8,2976,0
HODM,6/1/06,81.08611113,5.553706443,73.2,89.6,2880,0
HODM,7/1/06,82.95668017,5.297596487,75.7,88.9,2964,12
HODM,8/1/06,87.82540322,1.29224705,82.1,91.9,2976,0
HODM,9/1/06,84.31237842,2.335903393,81.1,90.6,2876,4
HODM,10/1/06,86.02674722,1.543915075,79.3,91.7,2976,0
HODM,11/1/06,80.08416687,1.866030386,77.1,86.3,2880,0
HODM,12/1/06,78.84623658,2.037975507,68.7,82.3,2976,0
HODM,1/1/07,87.94086022,3.204210923,80.5,91.2,2976,0
HODM,2/1/07,91.94062488,1.138925177,87.9,95.3,2688,0
HODM,3/1/07,94.92002694,1.071690363,90.3,96.6,2976,0
HODM,4/1/07,95.73166658,0.281113048,94.8,96.8,2880,0
HODM,5/1/07,96.34798354,0.407817925,94.7,97.7,2976,0
HODM,6/1/07,97.43319443,0.349020242,96.5,98.4,2880,0
HODM,7/1/07,98.02432787,0.340300909,96.9,99.3,2976,0
HODM,8/1/07,98.77916682,0.212127145,98.1,100.2,2976,0
HODM,9/1/07,99.14347223,0.555135464,97.9,100.7,2880,0
HODM,10/1/07,99.51680089,1.074389337,94.9,102,2976,0
HODM,11/1/07,94.09333344,2.384862484,90.9,100.7,2880,0
HODM,12/1/07,95.96989229,1.23990011,92.3,98.2,2976,0
HODM,1/1/08,91.40954937,4.126389096,78.2,98.7,2974,1
HODM,2/1/08,89.56106317,2.921971124,83,93.7,2784,0
HODM,3/1/08,88.67419345,2.263366972,84.7,93.1,2976,0
HODM,4/1/08,92.1651387,0.197078409,91.6,92.9,2880,0
HODM,5/1/08,93.01303754,0.427623671,92,94.6,2976,0
HODM,6/1/08,90.728472,1.148825909,88.7,93.8,2880,0
HODM,7/1/08,92.94086018,1.155742931,90.7,94.7,2976,0
HODM,8/1/08,94.36276872,0.313631216,93.4,95.2,2976,0
HODM,9/1/08,95.03499995,0.472778194,93.9,96.6,2880,0
HODM,10/1/08,95.47405914,0.403096373,93.8,96.7,2976,0
HODM,11/1/08,96.66999985,0.630201876,95.4,98.1,2880,0
HODM,12/1/08,99.91599461,2.330015971,97.5,107.9,2976,0
HODM,1/1/09,107.9686387,0.662776181,105.9,109.6,1403,1
HODM,10/1/09,112.6155537,0.273652765,112.2,113.5,1093,0
HODM,11/1/09,113.1847223,1.894828289,108.3,115.8,2880,0
HODM,12/1/09,113.5263442,0.750434057,111.8,115.1,2976,0
HODM,1/1/10,116.1010754,1.142133757,112.2,118.8,2976,0
HODM,2/1/10,118.974851,0.820762545,116.8,120.7,2688,0
HODM,3/1/10,119.7997311,0.634111335,117,121.3,2976,0
HODM,4/1/10,120.2112499,0.42111493,118.7,123.5,2880,0
HODM,5/1/10,120.395027,0.608943534,119.1,122.4,2976,0
HODM,6/1/10,120.9730556,0.355959174,120.1,122,2880,0
HODM,7/1/10,121.168145,0.281783247,120.1,122.2,2976,0
HODM,8/1/10,121.2995968,0.379384477,118,122.6,2976,0
HODM,9/1/10,121.4951391,0.228418161,120.6,123.1,2880,0
HODM,10/1/10,121.6881721,0.298558681,121,123.2,2976,0
HODM,11/1/10,120.9713891,1.336847912,119.5,123.7,2880,0
HODM,12/1/10,128.4207268,4.571564335,119.7,135.2,2972,4
HODM,1/1/11,133.1618021,2.395817233,130.1,137.1,2974,2
HODM,2/1/11,133.0663691,1.870556135,128.6,138.4,2688,0
HODM,3/1/11,137.4967744,0.874491719,135.7,139.6,2976,0
HODM,4/1/11,138.9441669,0.723424136,135.9,140.7,2880,0
HODM,5/1/11,140.2783604,0.52298003,138.8,141.7,2976,0
HODM,6/1/11,141.4775,0.557440876,140.2,143,2880,0
HODM,7/1/11,141.9255377,1.086333685,137.9,143.5,2976,0
HODM,8/1/11,143.6217746,0.254009175,142.7,144.8,2976,0
HODM,9/1/11,144.067361,0.432514712,142.3,145.9,2880,0
HODM,10/1/11,144.9920697,0.699813504,142.9,147.2,2976,0
HODM,11/1/11,146.6547221,0.895889193,142.8,148.4,2880,0
HODM,12/1/11,145.3561571,14.4743381,79.2,157.9,2956,18
HODM,1/1/12,81.02024195,1.594503754,76.3,84.4,2974,1
HODM,2/1/12,86.65373542,2.586665364,80.6,93.2,2784,0
HODM,3/1/12,89.01142473,0.655272464,87.5,90.4,2976,0
HODM,4/1/12,86.32805537,2.3470282,83.2,89.9,2880,0
HODM,5/1/12,91.54583324,1.713718059,85.4,94.2,2976,0
HODM,6/1/12,93.71291709,0.828201698,92.5,96.4,2880,0
HODM,7/1/12,94.33400567,0.692383463,89,95.6,2976,0
HODM,8/1/12,94.71935461,1.438804717,90.3,96.6,2976,0
HODM,9/1/12,91.03236084,0.426486811,88,92.1,2880,0
HODM,10/1/12,88.44126324,1.274812418,85.4,92,2976,0
HODM,11/1/12,88.63555579,0.719914577,84.8,93,2880,0
HODM,12/1/12,89.71411296,1.849468423,82.2,92.3,2976,0
HODM,1/1/13,88.34556431,3.416516591,76.2,92.9,2976,0
HODM,2/1/13,82.61235113,1.573764888,80.2,88.6,2688,0
HODM,3/1/13,85.13481175,3.946054248,80.5,91.9,2976,0
HODM,4/1/13,86.92444411,2.63308097,82.7,92.1,2880,0
HODM,5/1/13,89.73615589,3.76523096,78.7,92.6,2976,0
HODM,6/1/13,88.99444438,1.589308353,86.3,92.7,2880,0
HODM,7/1/13,85.49448922,0.556130204,83.1,87.9,2976,0
HODM,8/1/13,92.08803767,2.602706891,85.5,94.4,2976,0
HODM,9/1/13,92.27986104,1.092306808,90.6,94.6,2880,0
HODM,10/1/13,91.99112895,0.82932905,89.4,94.5,2976,0
HODM,11/1/13,93.58902792,1.369809671,91,96.4,2880,0
HODM,12/1/13,97.46868298,1.802914522,93.8,102.2,2976,0
HODM,1/1/14,111.4749999,10.22539378,89.9,127.2,2976,0
HODM,2/1/14,97.45877981,1.812584223,93.8,99.8,2688,0
HODM,3/1/14,98.67580656,1.549325573,94.1,100.5,2976,0
HODM,4/1/14,100.4561115,0.827734685,99.4,103.1,2880,0
HODM,5/1/14,101.2788979,0.262524908,100.4,102.9,2976,0
HODM,6/1/14,101.6869444,0.221765662,100.9,102.4,2880,0
HODM,7/1/14,102.171371,0.645460004,101.1,105.4,2976,0
HODM,8/1/14,102.571909,0.292937144,101.6,103.6,2976,0
HODM,9/1/14,103.3088889,0.26257357,102.4,104.2,2880,0
HODM,10/1/14,104.0592742,0.741613919,99.4,105.7,2976,0
HODM,11/1/14,96.90198031,6.878138256,0,106.1,2879,0
HODM,12/1/14,94.01169332,0.836357294,90.7,95.6,2976,0
HODM,1/1/15,93.67137099,2.073817808,87.4,96.5,2976,0
HODM,2/1/15,96.5138392,2.193688493,88.9,99.6,2688,0
HODM,3/1/15,89.02889791,2.966377035,86.1,97.1,2976,0
HODM,4/1/15,85.89583333,1.553602924,82.9,89.7,2880,0
HODM,5/1/15,86.63857528,0.715074433,84.9,88.8,2976,0
HODM,6/1/15,97.27013921,3.515860322,85.9,99.2,2880,0
HODM,7/1/15,98.9465054,0.460574701,96.9,100.8,2976,0
HODM,8/1/15,98.84825254,0.92150979,89.7,100.2,2976,0
HODM,9/1/15,100.4418053,0.370596664,99.4,101.6,2880,0
HODM,10/1/15,101.3689514,0.630147501,99.2,103.1,2976,0
HODM,11/1/15,102.8447844,0.818157495,100.6,105,2876,0
HODM,12/1/15,112.2075367,6.336975024,104.5,125.3,2972,0
HODM,1/1/16,123.0337364,2.229146457,119.6,128.2,2976,0
HODM,2/1/16,131.5714079,1.9050027,125.1,133.9,2784,0
HODM,3/1/16,131.4865593,1.428321273,124.6,134,2976,0
HODM,4/1/16,133.3226384,0.174437286,132.7,134.2,2880,0
HODM,5/1/16,130.4603498,2.575524851,127.2,134.5,2976,0
HODM,6/1/16,132.1495834,1.326513735,129.1,134.9,2880,0
HODM,7/1/16,126.4760752,2.514825651,123.8,134.8,2976,0
HODM,8/1/16,125.1954301,0.25537452,123.9,126,2976,0
HODM,9/1/16,125.1370834,0.691053312,122.8,126.8,2880,0
HODM,10/1/16,120.7962314,9.868835426,91.4,126.4,2972,0
HODM,11/1/16,88.80890133,5.564044188,72.1,95.9,2876,0
HODM,12/1/16,85.58749992,2.033710373,79.6,90.2,2976,0
HODM,1/1/17,86.72284944,1.107463668,83.3,88.9,2976,0
HODM,2/1/17,89.33556551,0.967118274,87.4,91.7,2688,0
HODM,3/1/17,84.63481172,3.942744529,76.3,92,2976,0
HODM,4/1/17,76.0777467,1.084662296,71.3,80,2876,0
HODM,5/1/17,75.94946228,2.56757814,69.4,80.1,2976,0
HODM,6/1/17,78.70097238,0.370554193,77.8,80.5,2880,0
HODM,7/1/17,78.84193523,0.570079064,76.5,80.2,2976,0
HODM,8/1/17,79.31991905,0.977295428,75.7,82.1,2972,0
HODM,9/1/17,80.61958314,0.254487777,78.2,82.1,2880,0
HODM,10/1/17,78.74166678,1.685301084,70.7,82.6,2976,0
HODM,11/1/17,78.2287008,1.447240401,73.7,81,2878,0
HODM,12/1/17,73.93198909,4.971656109,62.8,82.2,2976,0
HODM,1/1/18,65.65322577,5.506192944,53.2,74.7,2976,0
HODM,2/1/18,60.89598225,1.406835926,56.2,63.9,2688,0
HODM,3/1/18,63.81102169,3.028889578,57.3,69,2976,0
HODM,4/1/18,71.49958318,3.186195984,67.3,76.7,2880,0
HODM,5/1/18,77.19193556,0.773729899,75.7,79,2976,0
HODM,6/1/18,78.2256944,0.946689079,75.1,80.7,2880,0
HODM,7/1/18,77.01478485,2.832967309,70.2,80.7,2976,0
HODM,8/1/18,80.78319862,0.913480738,79,83.9,2976,0
HODM,9/1/18,82.18805555,0.458302562,79.9,84.1,2880,0
HODM,10/1/18,83.69059136,1.005018674,81.9,88.6,2976,0
HODM,11/1/18,85.36717667,1.552595585,82.4,88.8,2876,0
HODM,12/1/18,94.06989245,2.223197873,88.7,101.3,2976,4
HODM,1/1/19,93.07298413,2.351615089,86.9,100,2976,0
HODM,2/1/19,93.02633945,2.541968984,81.7,96.8,2688,0
HODM,3/1/19,83.9866935,1.209340886,80,89.2,2976,0
HODM,4/1/19,84.03499997,1.298428444,81.8,86.5,2880,0
HODM,5/1/19,85.40120996,0.319766325,83.6,86.5,2976,0
HODM,6/1/19,88.47833332,3.623688352,82.2,93.8,2880,0
HODM,7/1/19,95.64112892,1.062713573,93.7,98.2,2976,0
HODM,8/1/19,97.43629013,0.621216271,96.1,99,2976,0
HODM,9/1/19,99.98333356,0.621642775,98,102.2,2880,1380
HODM,10/1/19,100.8798387,0.349746693,100.1,101.9,2976,2976
HODM,11/1/19,102.24,0.577532204,100.1,103.8,2880,2880
HODM,12/1/19,97.98430976,3.588706829,91.6,105,2970,1209
HODM,1/1/20,95.9370966,1.214288072,92.3,99.4,2976,2976
HODM,2/1/20,94.5837643,3.580015225,86.1,100.6,2784,2784
HODM,3/1/20,90.19743943,1.913901775,79.2,94.6,2968,2976
HODM,4/1/20,87.01861091,0.291528907,86,87.8,2880,2880
HODM,5/1/20,87.36505457,0.137352718,86.9,88,2976,2976
HODM,6/1/20,87.8918056,0.365747212,87.2,89,2880,2880
HODM,7/1/20,89.49327972,0.328022099,88.1,90.4,2976,2976
HODM,8/1/20,89.87607532,0.341256505,88.5,91,2976,2976
HODM,9/1/20,79.75041668,4.08313066,75.2,92.6,2880,2880
HODM,10/1/20,84.33702698,2.372133305,78.5,90.8,2960,2976
HODM,11/1/20,90.21277764,0.58806295,88.3,91.9,2880,2880
HODM,12/1/20,93.32728478,3.480634907,89.3,101.1,2976,2976
HODM,1/1/21,101.5951615,1.683295068,94.8,104.9,2976,2976
HODM,2/1/21,101.2909225,1.769911212,96.1,105.1,2688,2688
HODM,3/1/21,94.71305512,3.163044639,88.9,103.6,2972,2976
HODM,4/1/21,96.89315639,1.41532782,92,99.4,2864,2880
HODM,5/1/21,95.68328799,2.310284892,87.8,101,2944,2976
HODM,6/1/21,102.8340276,2.639269884,98.8,106.3,2880,2880
HODM,7/1/21,106.2122314,0.505404135,104.8,107.4,2976,2976
HODM,8/1/21,107.2412637,0.318406269,105.4,108.3,2976,2976
HODM,9/1/21,105.6738889,3.616459027,98.2,108.3,2880,2880
HODM,10/1/21,107.8642473,2.479747646,94.8,110.2,2976,2976
HODM,11/1/21,109.1569446,1.552698459,102.9,111,2880,2880
HODM,12/1/21,115.4744623,5.514077347,105.2,125.5,2976,2976
HODM,1/1/22,117.3746046,4.393009898,107.2,124.3,2973,2976
HODM,2/1/22,120.3877974,1.058117565,117.4,122.3,2688,2688
HODM,3/1/22,118.3780913,2.610163099,115.2,127,2976,2976
HODM,4/1/22,115.2393052,1.714509909,111.4,118.7,2880,2880
HODM,5/1/22,118.2127688,0.545242149,117,120.5,2976,2976
HODM,6/1/22,119.7845834,0.388366722,118.8,121.8,2880,2880
HODM,7/1/22,120.8641131,0.649603972,119.6,122.7,2976,2976
HODM,8/1/22,125.8290323,1.199827954,121.8,128.3,2976,2976
HODM,9/1/22,126.8986112,0.762091469,125.3,129.3,2880,2880
HODM,10/1/22,129.1528224,0.811293163,126.9,131.1,2976,2976
HODM,11/1/22,126.5368056,3.229443957,120.8,131,2880,2880
HODM,12/1/22,130.472014,1.71804558,128.2,134.9,1758,1758